DW0307 Weather Reports


time (UTC)temp
C
wind
direction
speed
KPH
gust
KPH
rain 1hr
cm
rain 24hr
cm
rain mn
cm
humidity
%
barometer
mb
20260506233108 13 223 12.9 22.5 0.05 0.05 0.05 84 1010.6
20260506231556 13 232 19.3 37.0 0.05 0.05 0.05 83 1010.9
20260506230053 14 223 25.7 53.1 0.03 0.03 0.03 79 1010.9
20260506224546 16 242 30.6 40.2 0.00 0.00 0.00 71 1010.5
20260506223053 16 227 17.7 29.0 0.00 0.00 0.00 68 1010.2
20260506221553 16 248 14.5 30.6 0.00 0.00 0.00 67 1010.2
20260506220056 15 250 16.1 32.2 0.00 0.00 0.00 67 1010.2
20260506214552 15 219 9.7 25.7 0.00 0.00 0.00 66 1010.0
20260506213105 15 222 17.7 25.7 0.00 0.00 0.00 67 1010.0
20260506211550 15 221 14.5 27.4 0.00 0.00 0.00 68 1010.0
20260506210047 14 213 12.9 22.5 0.00 0.00 0.00 71 1010.1
20260506204551 13 214 8.0 17.7 0.00 0.00 0.00 73 1010.0
20260506203050 12 249 6.4 12.9 0.00 0.00 0.00 72 1010.1
20260506201547 13 258 8.0 12.9 0.00 0.00 0.00 70 1010.1
20260506200051 14 231 9.7 16.1 0.00 0.00 0.00 69 1010.1
20260506194555 14 223 8.0 12.9 0.00 0.00 0.00 70 1010.1
20260506193057 14 196 6.4 11.3 0.00 0.00 0.00 71 1010.2
20260506191544 13 206 1.6 4.8 0.00 0.00 0.00 71 1010.4
20260506190052 13 206 1.6 4.8 0.00 0.00 0.00 70 1010.4
20260506184550 14 206 3.2 4.8 0.00 0.00 0.00 68 1010.1
20260506183051 14 206 3.2 8.0 0.00 0.00 0.00 67 1010.1
20260506181549 15 205 3.2 8.0 0.00 0.00 0.00 64 1010.0
20260506174550 17 201 6.4 11.3 0.00 0.00 0.00 61 1009.9
20260506173043 17 210 6.4 17.7 0.00 0.00 0.00 60 1010.0
20260506171557 17 217 6.4 14.5 0.00 0.00 0.00 59 1009.8
20260506170103 18 215 9.7 16.1 0.00 0.00 0.00 58 1009.8
20260506164551 18 213 12.9 20.9 0.00 0.00 0.00 56 1009.9
20260506163111 19 221 14.5 35.4 0.00 0.00 0.00 54 1009.8
20260506161545 19 238 17.7 30.6 0.00 0.00 0.00 52 1010.0
20260506160056 19 225 20.9 33.8 0.00 0.00 0.00 53 1010.1
20260506154615 20 235 22.5 32.2 0.00 0.00 0.00 52 1010.1
20260506153117 20 228 20.9 30.6 0.00 0.00 0.00 51 1010.2
20260506151558 21 239 20.9 35.4 0.00 0.00 0.00 50 1010.1
20260506150055 21 219 17.7 38.6 0.00 0.00 0.00 48 1010.3
20260506144548 21 207 16.1 32.2 0.00 0.00 0.00 48 1010.1
20260506143101 21 188 20.9 35.4 0.00 0.00 0.00 47 1010.4
20260506141549 21 237 20.9 35.4 0.00 0.00 0.00 47 1010.3
20260506140049 22 212 22.5 35.4 0.00 0.00 0.00 47 1010.2
20260506134546 23 217 22.5 40.2 0.00 0.00 0.00 45 1010.0
20260506133045 22 218 17.7 29.0 0.00 0.00 0.00 46 1010.1
20260506131550 22 221 19.3 30.6 0.00 0.00 0.00 47 1010.2
20260506130057 22 201 16.1 38.6 0.00 0.00 0.00 48 1010.1
20260506124549 21 216 14.5 33.8 0.00 0.00 0.00 52 1010.1
20260506123050 20 218 14.5 25.7 0.00 0.00 0.00 53 1010.0
20260506121549 19 205 16.1 32.2 0.00 0.00 0.00 52 1009.9
20260506120052 20 191 14.5 32.2 0.00 0.00 0.00 51 1009.9
20260506114559 20 208 16.1 27.4 0.00 0.00 0.00 51 1010.0
20260506113046 20 148 16.1 32.2 0.00 0.00 0.00 49 1009.9
20260506111551 20 165 16.1 35.4 0.00 0.00 0.00 50 1010.0
20260506110055 21 177 17.7 33.8 0.00 0.00 0.00 50 1010.1
20260506104550 21 189 12.9 25.7 0.00 0.00 0.00 51 1010.0
20260506103047 20 173 9.7 17.7 0.00 0.00 0.00 50 1010.0
20260506101547 20 180 12.9 25.7 0.00 0.00 0.00 49 1010.0
20260506100047 20 229 17.7 38.6 0.00 0.00 0.00 48 1009.8
20260506094615 21 223 14.5 25.7 0.00 0.00 0.00 46 1009.8
20260506093053 21 262 19.3 30.6 0.00 0.00 0.00 44 1009.8
20260506091547 21 221 14.5 33.8 0.00 0.00 0.00 47 1009.7
20260506090049 21 234 20.9 32.2 0.00 0.00 0.00 45 1009.7
20260506084549 21 248 19.3 35.4 0.00 0.00 0.00 46 1009.6
20260506083047 21 234 24.1 37.0 0.00 0.00 0.00 46 1009.6
20260506081550 21 198 22.5 35.4 0.00 0.00 0.00 45 1009.6
20260506073050 20 211 20.9 32.2 0.00 0.00 0.00 48 1009.6
20260506071550 19 262 17.7 29.0 0.00 0.00 0.00 51 1009.5
20260506061546 18 234 14.5 30.6 0.00 0.00 0.00 54 1009.5
20260506044553 13 208 8.0 12.9 0.00 0.00 0.00 68 1009.4
20260506043049 13 200 4.8 11.3 0.00 0.00 0.00 67 1009.3
20260506041548 13 209 9.7 19.3 0.00 0.00 0.00 65 1009.4
20260506034604 13 190 12.9 17.7 0.00 0.00 0.00 64 1009.0
20260506033049 13 207 8.0 11.3 0.00 0.00 0.00 62 1008.9
20260506031601 14 219 11.3 22.5 0.00 0.00 0.00 59 1009.1
20260506030051 16 222 16.1 35.4 0.00 0.00 0.00 55 1009.2
20260506024554 15 229 25.7 43.5 0.00 0.00 0.00 55 1009.3
20260506023050 15 234 17.7 40.2 0.00 0.00 0.00 55 1009.3
20260506021544 14 213 16.1 24.1 0.00 0.00 0.00 59 1009.4
20260506020055 13 226 17.7 29.0 0.00 0.00 0.00 60 1009.4
20260506014553 13 234 17.7 24.1 0.00 0.00 0.00 62 1009.5
20260506013052 12 233 17.7 24.1 0.00 0.00 0.00 64 1009.5
20260506011551 12 230 11.3 20.9 0.00 0.00 0.00 65 1009.6
20260506010056 12 224 12.9 22.5 0.00 0.00 0.00 65 1009.8
20260506004600 12 221 16.1 22.5 0.00 0.00 0.00 65 1009.8
20260506003052 11 205 14.5 19.3 0.00 0.00 0.00 66 1010.0
20260506001554 12 225 12.9 19.3 0.00 0.00 0.00 66 1010.0
20260506000052 11 236 11.3 19.3 0.00 0.00 0.00 67 1010.1
20260505234556 12 248 12.9 22.5 0.00 0.00 0.00 65 1010.2